Temperature
17 17 16 16 16 16 16 16 16 17 17 16 16 15 15 15 15 15 15 15 15 15 15 15 15 15 15 15 15 15 14 14 14 14 14 14 14 14
17 16 16 16 16 16 16 16 16 16 16 16 15 15 15 15 15 15 15 15 15 15 15 15 15 14 14 14 14 14 14 14 14 14 14 14 14 14
16 16 16 16 16 16 16 16 16 16 16 16 15 15 15 15 15 14 14 14 14 14 14 14 14 14 14 14 14 14 14 14 14 14 14 14 14 14
16 16 16 16 15 15 15 15 15 15 15 15 15 15 14 14 14 14 14 14 14 14 14 14 14 14 14 14 14 14 14 14 14 14 14 14 14 14
16 15 15 15 15 15 15 15 15 15 15 15 15 14 14 14 14 14 14 14 14 14 14 14 14 14 14 14 14 14 14 13 13 13 13 13 13 13
15 15 15 15 15 15 15 14 14 14 14 14 15 14 14 14 14 14 14 14 14 14 14 14 14 14 14 14 13 13 13 13 13 13 13 13 13 13
15 15 15 15 15 14 14 14 14 14 14 14 14 14 14 14 14 14 14 14 14 13 13 13 14 13 13 13 13 13 13 13 13 13 13 13 13 13
15 14 14 14 14 14 14 14 14 14 14 14 14 14 14 14 13 13 13 13 13 13 13 13 13 13 13 13 13 13 13 13 13 13 13 13 13 13
14 14 14 14 14 14 14 14 14 14 13 13 13 13 13 13 13 13 13 13 13 13 13 13 13 13 13 13 13 13 13 13 13 13 13 13 13 13
14 14 14 14 14 14 13 13 13 13 13 13 13 13 13 13 13 13 13 13 13 13 13 13 13 13 13 13 13 13 13 13 13 13 13 13 13 13
14 14 14 13 13 13 13 13 13 13 13 13 13 13 13 13 13 13 12 13 13 13 13 13 13 13 13 13 13 13 13 13 13 13 12 12 12 12
14 14 14 13 13 13 13 12 12 13 13 13 12 12 12 12 12 12 12 12 12 13 13 12 13 13 13 13 13 13 13 12 12 12 12 12 12 12
14 14 13 13 13 13 12 12 12 12 12 12 12 12 12 12 12 12 12 12 12 12 12 12 12 12 13 13 13 12 12 12 12 12 12 12 12 12
13 13 13 13 13 12 12 12 12 12 12 12 12 12 12 12 12 12 12 12 12 12 12 12 12 12 12 12 12 12 12 12 12 12 12 12 12 12
13 13 13 13 12 12 12 12 12 12 12 12 12 12 12 11 11 11 11 11 11 11 11 11 11 11 12 12 12 12 12 12 12 12 12 12 12 12
12 12 12 12 12 12 12 12 11 11 11 11 11 11 11 11 11 11 11 11 11 11 11 11 11 11 11 11 12 12 12 12 12 12 12 12 12 12
12 12 12 12 12 12 12 11 11 11 11 11 11 11 11 11 11 11 11 11 11 11 11 11 11 11 11 11 11 12 12 12 12 11 11 11 12 11
12 12 12 12 12 11 11 11 11 11 11 11 11 11 11 11 11 11 11 11 11 11 11 11 11 11 11 11 11 11 11 11 11 11 11 11 11 11
11 11 11 11 11 11 11 11 11 11 10 10 10 10 10 11 11 11 11 11 11 11 11 11 11 11 11 11 11 11 11 11 11 11 11 11 11 11
11 11 11 11 11 11 11 11 10 10 10 10 10 10 10 10 10 10 11 10 11 11 11 11 10 10 11 11 11 11 11 11 11 11 11 11 11 11
11 11 11 11 10 10 10 10 10 10 10 9 9 9 10 10 10 10 10 10 10 10 11 11 10 10 10 10 10 11 11 10 10 10 10 10 10 11
11 11 10 10 10 10 10 10 10 9 9 9 9 9 9 9 10 10 10 10 10 10 10 10 10 10 10 10 10 11 10 10 10 10 10 10 10 10
10 10 10 10 10 9 9 9 9 9 9 9 9 9 9 9 9 9 10 10 10 10 10 10 10 10 10 10 10 11 10 10 10 10 10 10 10 10
Wind_Speed
2 2 2 2 2 3 3 4 4 4 3 2 1 1 1 2 2 3 4 6 7 6 6 5 5 5 5 5 5 4 4 3 3 3 3 3 4 4
1 1 2 2 2 2 3 4 4 5 4 2 2 1 1 2 2 3 4 7 8 7 6 6 6 6 7 7 6 5 5 4 4 4 4 4 4 4
2 1 2 2 2 2 2 3 3 3 4 3 2 1 1 2 1 2 3 4 5 9 8 7 7 8 8 8 7 7 6 6 5 5 5 5 5 4
3 2 3 2 2 3 2 3 2 3 4 3 3 2 2 2 2 3 3 3 3 7 9 8 9 9 9 9 8 8 7 7 6 6 5 5 5 5
3 3 3 3 3 2 3 3 3 3 3 4 4 2 2 2 3 3 3 2 4 5 9 9 10 10 10 10 9 9 8 8 7 7 6 6 5 5
4 4 4 4 3 3 3 3 3 3 3 4 4 3 2 2 3 3 3 3 4 3 4 5 8 11 10 10 10 10 10 9 8 8 7 7 6 6
5 5 4 3 3 4 4 3 4 4 4 4 4 4 3 3 3 4 4 3 4 3 3 3 4 5 7 9 10 10 10 9 9 8 8 7 7 7
5 5 5 5 4 5 5 5 5 5 5 5 5 5 5 5 4 4 4 4 4 3 4 4 3 4 4 5 7 9 9 9 9 9 8 8 8 7
5 5 5 4 5 5 5 7 6 6 7 7 7 7 6 5 5 6 5 5 5 3 4 5 4 4 4 4 9 10 10 9 9 9 9 9 9 9
6 6 5 5 4 5 6 5 5 5 6 7 7 7 6 4 5 6 6 6 5 4 4 5 4 5 4 4 9 11 11 11 10 10 9 9 9 9
5 5 5 5 2 3 5 5 5 5 4 4 5 5 5 5 5 4 5 5 5 4 4 5 5 5 4 4 7 12 12 12 11 10 10 9 10 10
4 5 3 3 2 3 5 5 5 5 5 4 5 6 6 6 7 7 6 5 5 4 3 4 5 4 4 4 4 6 8 10 12 12 10 9 8 8
4 3 1 4 2 3 5 5 5 6 6 6 5 4 4 4 5 5 5 6 5 5 3 3 4 4 4 3 3 4 4 5 7 9 11 11 10 8
4 3 0 3 3 5 5 4 5 7 5 5 5 4 4 4 4 4 5 5 5 6 5 5 5 5 5 5 4 3 4 5 5 5 6 10 11 11
3 1 0 4 5 5 6 6 7 5 4 4 4 5 4 4 4 4 4 5 6 6 6 6 6 6 5 6 5 5 5 4 5 5 5 5 6 6
3 2 5 7 6 4 5 5 5 4 4 4 4 4 4 4 4 4 4 4 4 4 4 5 6 6 6 5 5 6 5 4 4 4 5 5 5 6
3 4 4 4 4 4 4 4 4 4 4 4 4 4 4 4 4 3 4 4 4 4 3 3 4 5 6 6 6 5 5 5 5 4 5 6 6 6
5 5 4 4 4 4 4 4 4 4 4 4 4 4 4 4 4 4 4 4 5 4 4 3 3 4 5 4 4 6 5 4 4 4 5 6 5 5
6 5 4 4 4 4 4 4 4 3 3 4 4 4 5 5 4 4 4 4 5 5 5 4 4 4 5 5 4 4 5 5 5 4 5 5 5 4
5 4 4 4 4 4 4 4 4 4 4 4 4 4 5 5 5 5 5 5 6 5 5 4 4 5 6 6 5 3 5 5 5 5 5 5 4 3
4 4 5 5 5 4 4 4 5 4 4 5 5 5 5 6 5 6 6 6 7 6 6 5 4 5 6 5 5 4 3 4 4 4 5 6 6 6
4 5 5 5 5 5 5 5 5 5 5 5 5 5 6 6 6 6 6 6 6 6 6 5 4 5 5 6 6 5 4 3 4 5 5 5 5 6
4 4 4 5 5 5 5 5 6 5 5 5 5 5 6 6 6 6 6 6 6 6 6 5 4 5 6 6 6 5 5 5 4 4 4 5 7 6
Wind_Direction
253 236 250 268 262 267 264 258 267 273 272 261 253 222 232 234 192 202 190 167 182 191 193 194 191 198 203 204 208 206 203 215 230 245 260 263 251 242
266 282 269 274 287 273 262 261 269 274 280 275 261 267 274 253 178 222 206 171 181 195 204 208 209 212 208 206 209 209 208 215 229 240 249 254 251 243
272 261 266 286 275 271 270 271 270 269 264 278 282 252 227 261 230 236 225 208 190 192 205 216 221 219 211 209 210 210 210 216 226 236 244 249 247 245
245 254 256 253 262 274 273 269 276 275 264 272 280 259 235 233 229 240 237 225 221 184 199 213 218 218 214 211 211 210 212 218 223 229 237 241 243 242
243 246 249 253 261 273 267 265 262 258 263 265 267 263 253 243 243 241 239 243 239 200 196 203 207 211 210 212 213 212 212 217 220 224 231 236 240 239
241 244 247 246 253 263 262 266 268 265 255 259 266 258 248 245 246 250 247 231 248 242 225 206 196 203 204 208 212 215 215 216 218 221 227 233 235 236
241 245 245 249 280 278 276 270 265 264 261 261 263 266 259 260 254 259 258 250 239 245 244 232 206 208 207 207 210 214 216 216 217 221 227 231 230 230
243 248 245 231 240 247 263 270 274 264 273 277 270 272 265 258 258 259 265 258 251 231 243 242 237 233 218 215 188 196 207 214 219 223 226 227 227 227
245 246 253 247 238 257 243 226 237 242 251 266 276 281 278 268 257 256 257 264 265 263 252 249 238 246 236 203 170 186 199 207 214 222 225 226 227 225
242 242 248 256 259 269 267 261 257 250 247 254 266 274 280 281 260 256 257 255 258 248 244 257 251 246 241 218 183 191 199 205 211 219 223 225 225 224
240 240 245 253 254 267 264 265 265 265 242 237 255 265 281 275 268 263 254 252 259 252 230 251 257 254 237 228 200 190 198 204 209 215 221 226 226 224
241 234 213 236 241 241 251 257 262 270 269 257 245 246 252 247 233 245 255 255 260 259 233 240 251 251 250 231 218 199 204 202 203 208 211 217 222 225
261 256 213 144 203 248 262 263 271 274 266 263 262 260 257 254 247 241 247 252 257 260 254 252 268 261 258 264 246 234 232 223 211 208 206 206 210 222
271 273 196 146 212 242 253 267 270 265 265 269 270 267 264 264 262 258 251 251 260 266 272 266 267 269 270 271 266 251 242 236 231 229 219 199 205 213
274 357 206 209 227 229 221 238 248 256 265 268 270 274 276 276 268 255 247 240 243 248 249 246 256 262 261 266 270 263 255 246 238 236 230 213 210 208
263 223 202 216 233 245 232 233 248 263 269 273 276 280 281 275 265 265 262 254 251 246 228 234 245 255 258 260 261 261 260 254 244 240 234 231 223 218
264 252 249 242 243 249 252 256 259 256 260 269 275 278 279 279 277 275 271 265 259 260 256 244 236 240 254 263 259 258 258 255 246 240 239 236 230 224
252 247 250 251 252 256 258 257 256 261 268 270 272 276 276 276 272 268 265 262 264 263 261 260 252 251 252 246 258 261 261 256 251 243 246 244 237 224
241 248 251 252 255 256 257 261 266 268 272 272 275 274 274 274 271 268 269 266 264 264 259 253 250 252 259 262 247 240 258 254 247 240 240 248 248 237
243 249 252 252 251 253 255 258 263 266 266 270 270 269 270 271 272 267 264 269 268 266 260 253 249 255 261 270 274 261 236 246 248 243 241 243 247 232
243 247 251 251 250 251 255 258 261 264 265 266 264 263 265 265 266 269 267 254 260 264 261 256 250 244 258 262 256 248 240 228 249 255 245 240 241 237
255 253 251 251 251 253 252 254 255 253 254 258 263 261 259 260 260 264 270 269 265 264 265 266 256 249 253 255 256 250 249 242 224 225 246 259 254 248
257 257 253 250 248 250 252 250 252 256 259 263 263 262 263 263 263 261 261 264 268 270 270 269 262 254 256 255 254 254 244 238 241 232 231 218 216 223
Height
1530 1530 1530 1531 1530 1530 1530 1530 1531 1529 1529 1528 1528 1527 1526 1526 1525 1525 1525 1525 1525 1525 1525 1526 1526 1526 1527 1527 1527 1527 1527 1528 1528 1528 1528 1528 1528 1528
1528 1527 1527 1528 1528 1528 1528 1527 1528 1527 1526 1526 1525 1525 1524 1524 1523 1523 1523 1522 1522 1523 1523 1523 1523 1524 1524 1525 1525 1525 1525 1526 1526 1526 1526 1526 1526 1526
1527 1526 1526 1526 1526 1526 1526 1525 1525 1525 1524 1524 1523 1522 1521 1521 1521 1521 1521 1520 1520 1520 1520 1520 1521 1521 1521 1522 1523 1523 1523 1523 1523 1523 1523 1523 1523 1523
1525 1524 1524 1524 1524 1524 1523 1523 1523 1522 1522 1521 1521 1520 1519 1519 1518 1518 1519 1519 1518 1518 1517 1517 1517 1518 1519 1519 1520 1520 1521 1521 1521 1521 1521 1520 1520 1521
1523 1523 1522 1522 1522 1521 1521 1521 1520 1520 1520 1519 1519 1518 1517 1517 1516 1516 1516 1516 1516 1515 1514 1514 1514 1515 1516 1516 1517 1518 1518 1518 1518 1519 1518 1518 1518 1518
1520 1520 1520 1520 1520 1519 1519 1518 1518 1518 1517 1517 1516 1516 1515 1514 1514 1514 1514 1513 1513 1513 1512 1512 1511 1512 1513 1513 1514 1515 1515 1515 1516 1516 1516 1516 1516 1516
1518 1518 1518 1517 1517 1517 1517 1516 1515 1515 1515 1514 1514 1513 1513 1512 1511 1511 1511 1511 1510 1510 1510 1510 1510 1510 1510 1510 1510 1511 1512 1512 1513 1513 1513 1513 1513 1514
1514 1514 1514 1514 1514 1513 1513 1512 1512 1512 1512 1511 1511 1510 1509 1509 1508 1508 1508 1508 1508 1508 1507 1507 1508 1508 1508 1507 1507 1508 1509 1509 1509 1510 1510 1511 1511 1511
1511 1511 1512 1512 1511 1510 1509 1509 1508 1508 1508 1508 1508 1506 1506 1506 1505 1505 1505 1504 1504 1504 1504 1504 1505 1505 1505 1505 1505 1505 1505 1506 1506 1507 1507 1508 1508 1508
1508 1508 1508 1507 1507 1506 1506 1506 1505 1504 1504 1504 1503 1503 1502 1502 1501 1502 1501 1501 1500 1500 1500 1501 1501 1501 1502 1502 1501 1502 1502 1503 1503 1504 1504 1504 1505 1505
1505 1504 1504 1504 1502 1502 1502 1502 1501 1501 1501 1500 1499 1499 1498 1498 1498 1498 1497 1498 1497 1497 1497 1498 1498 1498 1498 1498 1498 1498 1499 1499 1500 1500 1501 1501 1502 1502
1501 1501 1500 1500 1499 1498 1498 1499 1498 1498 1497 1497 1496 1495 1495 1494 1494 1494 1494 1494 1494 1494 1494 1494 1494 1494 1495 1495 1495 1496 1496 1496 1496 1497 1497 1498 1498 1499
1499 1498 1497 1496 1495 1495 1495 1496 1495 1495 1494 1494 1493 1493 1492 1492 1491 1491 1491 1491 1491 1490 1491 1491 1491 1491 1492 1492 1492 1492 1493 1493 1493 1493 1494 1494 1495 1496
1496 1495 1494 1493 1493 1492 1492 1492 1492 1492 1492 1492 1491 1490 1490 1489 1489 1488 1487 1487 1486 1487 1486 1487 1487 1488 1488 1488 1488 1489 1489 1489 1490 1490 1490 1490 1491 1492
1492 1491 1491 1490 1490 1490 1489 1489 1489 1489 1489 1488 1488 1488 1487 1486 1485 1485 1484 1483 1483 1483 1483 1483 1484 1484 1485 1485 1485 1485 1486 1486 1486 1487 1487 1487 1487 1488
1489 1488 1488 1487 1487 1487 1487 1487 1487 1486 1486 1486 1485 1485 1484 1483 1483 1482 1482 1482 1481 1481 1480 1480 1480 1481 1481 1481 1482 1481 1482 1482 1483 1483 1483 1484 1484 1484
1485 1485 1485 1485 1485 1485 1485 1484 1484 1484 1483 1483 1482 1482 1481 1481 1480 1479 1479 1479 1478 1478 1478 1477 1477 1477 1477 1478 1478 1478 1478 1478 1479 1479 1480 1480 1481 1481
1482 1482 1483 1483 1482 1482 1481 1481 1481 1481 1480 1479 1479 1479 1478 1478 1477 1477 1476 1476 1475 1475 1475 1475 1475 1475 1475 1474 1475 1474 1474 1475 1475 1476 1476 1477 1477 1478
1479 1480 1479 1479 1479 1479 1478 1478 1478 1477 1476 1476 1476 1476 1475 1475 1474 1474 1473 1473 1472 1472 1472 1472 1472 1471 1471 1471 1471 1471 1471 1471 1472 1472 1472 1473 1474 1474
1476 1476 1476 1476 1475 1475 1475 1474 1474 1474 1473 1473 1472 1472 1472 1471 1471 1470 1470 1469 1469 1469 1468 1469 1468 1468 1468 1468 1467 1467 1467 1467 1468 1468 1469 1469 1469 1470
1473 1473 1472 1472 1472 1471 1471 1470 1470 1470 1469 1469 1469 1468 1468 1468 1468 1467 1467 1466 1466 1466 1465 1465 1465 1465 1465 1465 1464 1464 1464 1464 1464 1464 1465 1465 1466 1466
1470 1469 1468 1468 1468 1467 1467 1466 1466 1466 1465 1465 1465 1465 1465 1465 1464 1464 1464 1463 1463 1462 1462 1462 1462 1462 1462 1462 1461 1460 1460 1460 1460 1459 1460 1461 1462 1462
1466 1465 1465 1464 1464 1463 1463 1462 1462 1462 1462 1462 1461 1461 1461 1461 1461 1461 1460 1460 1459 1459 1459 1459 1459 1459 1458 1458 1458 1457 1457 1457 1457 1457 1457 1457 1457 1458